Location: Bismarck
(46.7731°N, 100.8200°W)
Time: 17:04:56
(UTC-05:00)

Amateur Radio Satellites - All Passes

Search period start: 25 October 2014 16:34
Search period end: 26 October 2014 16:34
Location: Bismarck, 46.7731°N, 100.8200°W

Satellite Date Start Highest point End Downlink Frequencies (MHz)
Time Altitude Azimuth
TMSAT-1 25 Oct 16:42:28 16:47:11 32° 265° (W) 16:51:56 436.925 FM
SO-50 25 Oct 16:58:42 17:00:31 12° 341° (NNW) 17:02:21 436.795 FM
AO-7 25 Oct 17:13:11 17:21:27 74° 254° (WSW) 17:29:47 29.400 - 29.500 MHz
Uosat F 25 Oct 17:14:14 17:19:16 89° 255° (WSW) 17:24:21 435.120 FM
ISS 25 Oct 17:46:03 17:49:15 40° 12° (NNE) 17:52:26 145.800 FM
KITSAT 1 25 Oct 17:47:37 17:53:06 19° 358° (N) 17:58:35 435.175 FM
Hamsat 25 Oct 17:53:59 17:57:40 30° 68° (ENE) 18:01:20 145.90 MHz
Saudisat 1A 25 Oct 17:54:29 17:58:15 27° 244° (WSW) 18:01:59 436.775 MHz
JAS-2 25 Oct 17:54:35 18:00:32 60° 69° (ENE) 18:07:21 435.800 - 435.900 CW/SSB, 435.910 FM
UOSAT-12 25 Oct 18:16:28 18:19:11 15° 335° (NNW) 18:21:55 437.025 FM, 437.400 FM
AO-40 25 Oct 18:44:17 00:18:15 36° 184° (S) 06:11:44 Beacon 2401.320
OPAL 25 Oct 18:56:03 19:00:56 53° 103° (ESE) 19:05:45 ?
Uosat F 25 Oct 18:56:51 18:58:47 12° 273° (W) 19:00:44 435.120 FM
HO-68 25 Oct 19:07:07 19:08:55 11° 40° (NE) 19:10:44 435.675 MHz FM
AO-7 25 Oct 19:11:05 19:15:41 16° 274° (W) 19:20:19 29.400 - 29.500 MHz
ISS 25 Oct 19:22:46 19:26:05 62° 211° (SSW) 19:29:23 145.800 FM
Hamsat 25 Oct 19:30:01 19:33:36 27° 265° (W) 19:37:12 145.90 MHz
JAS-2 25 Oct 19:41:06 19:46:10 27° 271° (W) 19:51:46 435.800 - 435.900 CW/SSB, 435.910 FM
KITSAT 1 25 Oct 19:44:52 19:51:39 28° 28° (NNE) 19:58:23 435.175 FM
SO-67 25 Oct 20:04:51 20:08:16 72° 259° (WSW) 20:11:43 435.3500 MHz FM
SO-50 25 Oct 20:22:24 20:25:49 19° 31° (NNE) 20:29:16 436.795 FM
OPAL 25 Oct 20:35:37 20:39:29 23° 301° (WNW) 20:43:19 ?
STRAND 1 25 Oct 20:41:49 20:47:01 75° 103° (ESE) 20:52:09 ?
HO-68 25 Oct 20:48:10 20:54:50 44° 62° (ENE) 21:01:33 435.675 MHz FM
ISS 25 Oct 21:01:24 21:02:11 11° 228° (SW) 21:02:58 145.800 FM
UKube-1 25 Oct 21:08:54 21:11:32 16° 60° (ENE) 21:14:10 145.840 MHz, 145.915 MHz
KITSAT 1 25 Oct 21:40:18 21:48:26 77° 53° (NE) 21:56:30 435.175 FM
UOSAT-12 25 Oct 21:41:06 21:43:43 14° 24° (NNE) 21:46:19 437.025 FM, 437.400 FM
Oscar 11 25 Oct 21:48:05 21:51:53 31° 67° (ENE) 21:55:42 145.825 FM, Beacon 2401.500 USB
FUNcube-1 25 Oct 21:49:46 21:52:38 17° 61° (ENE) 21:55:29 145.950 - 145.970 MHz USB
SO-50 25 Oct 22:02:19 22:07:10 77° 52° (NE) 22:12:03 436.795 FM
RS-15 25 Oct 22:14:11 22:23:46 37° 108° (ESE) 22:33:18 29.354 - 29.394 USB, Beacon 29.352 USB
STRAND 1 25 Oct 22:22:13 22:25:37 18° 302° (WNW) 22:29:01 ?
HO-68 25 Oct 22:35:49 22:42:33 43° 262° (W) 22:49:21 435.675 MHz FM
ZACube-1 25 Oct 22:39:41 22:44:04 47° 71° (ENE) 22:48:24 437.345 MHz
UKube-1 25 Oct 22:42:55 22:47:14 65° 258° (WSW) 22:51:36 145.840 MHz, 145.915 MHz
UOSAT-12 25 Oct 23:20:22 23:24:59 49° 46° (NE) 23:29:31 437.025 FM, 437.400 FM
FUNcube-1 25 Oct 23:24:00 23:28:33 65° 259° (WSW) 23:33:03 145.950 - 145.970 MHz USB
Oscar 11 25 Oct 23:24:19 23:28:04 28° 265° (W) 23:31:50 145.825 FM, Beacon 2401.500 USB
KITSAT 1 25 Oct 23:36:33 23:43:05 28° 254° (WSW) 23:49:37 435.175 FM
SO-50 25 Oct 23:44:06 23:47:11 17° 250° (WSW) 23:50:17 436.795 FM
ZACube-1 26 Oct 00:17:16 00:20:41 21° 268° (W) 00:24:04 437.345 MHz
Oscar 10/S400 26 Oct 00:19:46 01:16:20 30° 224° (SW) 05:12:20 145.825 - 145.975 CW/USB, Beacon 145.810 USB
RS-15 26 Oct 00:24:21 00:35:18 73° 312° (NW) 00:46:20 29.354 - 29.394 USB, Beacon 29.352 USB
MaSat-1 26 Oct 00:48:33 00:52:36 84° 118° (ESE) 00:56:14 437.345 MHz
UOSAT-12 26 Oct 01:00:59 01:04:53 26° 246° (WSW) 01:08:44 437.025 FM, 437.400 FM
Oscar 16 26 Oct 02:10:12 02:13:33 17° 90° (E) 02:16:52 437.025 USB, Beacon 2401.1428
MaSat-1 26 Oct 02:26:53 02:28:34 13° 314° (NW) 02:30:11 437.345 MHz
Uribyol 2 26 Oct 02:33:15 02:35:08 12° 86° (E) 02:37:01 436.500 FM
ITAMSAT 1 26 Oct 02:39:14 02:41:34 13° 87° (E) 02:43:52 435.822 SSB
RS-15 26 Oct 02:40:12 02:49:52 34° 342° (NNW) 02:59:43 29.354 - 29.394 USB, Beacon 29.352 USB
JAS-1B 26 Oct 03:01:47 03:08:12 47° 100° (E) 03:15:47 435.800 - 435.900 CW/SSB
Oscar 19 26 Oct 03:02:19 03:07:17 48° 99° (E) 03:12:13 437.125 CW, 437.150 USB
Gurwin Techsat 1B 26 Oct 03:06:29 03:08:46 13° 86° (E) 03:11:02 435.225 FM
TMSAT-1 26 Oct 03:17:16 03:19:05 12° 86° (E) 03:20:54 436.925 FM
AO-27 26 Oct 03:23:27 03:28:09 32° 96° (E) 03:32:48 436.795 MHz FM
AO-Echo 26 Oct 03:32:55 03:38:07 52° 99° (E) 03:43:17 ?
Oscar 16 26 Oct 03:48:18 03:53:24 68° 288° (WNW) 03:58:29 437.025 USB, Beacon 2401.1428
Sapphire 26 Oct 03:55:37 03:59:54 25° 108° (ESE) 04:04:13 437.095 MHz 1200 baud AX-25 AFSK
Uribyol 2 26 Oct 04:10:09 04:15:25 85° 105° (ESE) 04:20:36 436.500 FM
ITAMSAT 1 26 Oct 04:16:31 04:21:48 90° 105° (ESE) 04:27:01 435.822 SSB
PCSat 26 Oct 04:17:07 04:22:06 39° 113° (ESE) 04:27:07 145.825 MHz
OPAL 26 Oct 04:36:41 04:40:29 22° 58° (ENE) 04:44:16 ?
Oscar 19 26 Oct 04:42:12 04:46:22 26° 298° (WNW) 04:50:31 437.125 CW, 437.150 USB
Gurwin Techsat 1B 26 Oct 04:44:09 04:49:30 87° 105° (ESE) 04:54:50 435.225 FM
JAS-1B 26 Oct 04:52:50 04:58:46 38° 295° (WNW) 05:05:41 435.800 - 435.900 CW/SSB
TMSAT-1 26 Oct 04:54:30 04:59:51 82° 104° (ESE) 05:05:09 436.925 FM
RS-15 26 Oct 04:56:33 05:06:15 34° 17° (NNE) 05:16:12 29.354 - 29.394 USB, Beacon 29.352 USB
AO-27 26 Oct 05:02:53 05:07:42 38° 294° (WNW) 05:12:29 436.795 MHz FM
AO-7 26 Oct 05:11:47 05:19:05 33° 95° (E) 05:26:21 29.400 - 29.500 MHz
AO-Echo 26 Oct 05:12:15 05:16:34 26° 298° (WNW) 05:20:53 ?
Uosat F 26 Oct 05:19:43 05:23:41 23° 93° (E) 05:27:37 435.120 FM
Oscar 16 26 Oct 05:30:15 05:31:49 11° 307° (NW) 05:33:23 437.025 USB, Beacon 2401.1428
Sapphire 26 Oct 05:37:36 05:42:56 59° 308° (NW) 05:48:20 437.095 MHz 1200 baud AX-25 AFSK
Uribyol 2 26 Oct 05:51:04 05:54:12 16° 304° (WNW) 05:57:20 436.500 FM
ITAMSAT 1 26 Oct 05:57:35 06:00:34 16° 304° (NW) 06:03:32 435.822 SSB
PCSat 26 Oct 06:00:27 06:05:31 39° 313° (NW) 06:10:38 145.825 MHz
OPAL 26 Oct 06:13:52 06:18:58 62° 256° (WSW) 06:24:01 ?
STRAND 1 26 Oct 06:23:11 06:27:04 22° 60° (ENE) 06:30:58 ?
Gurwin Techsat 1B 26 Oct 06:25:36 06:28:46 16° 304° (WNW) 06:31:56 435.225 FM
TMSAT-1 26 Oct 06:35:46 06:39:06 17° 303° (WNW) 06:42:27 436.925 FM
JAS-2 26 Oct 06:44:48 06:52:18 48° 97° (E) 06:59:46 435.800 - 435.900 CW/SSB, 435.910 FM
Uosat F 26 Oct 06:57:51 07:02:45 51° 291° (WNW) 07:07:37 435.120 FM
AO-7 26 Oct 07:04:11 07:12:23 65° 295° (WNW) 07:20:34 29.400 - 29.500 MHz
RS-15 26 Oct 07:09:56 07:21:02 69° 47° (NE) 07:32:33 29.354 - 29.394 USB, Beacon 29.352 USB
Hamsat 26 Oct 07:11:57 07:15:57 41° 98° (E) 07:19:56 145.90 MHz
Sapphire 26 Oct 07:24:13 07:27:33 16° 330° (NNW) 07:30:53 437.095 MHz 1200 baud AX-25 AFSK
PCSat 26 Oct 07:48:12 07:50:31 13° 337° (NNW) 07:52:51 145.825 MHz
STRAND 1 26 Oct 08:00:48 08:05:51 58° 259° (W) 08:10:58 ?
Saudisat 1A 26 Oct 08:02:56 08:06:58 37° 118° (ESE) 08:11:02 436.775 MHz
JAS-2 26 Oct 08:29:59 08:37:13 45° 296° (WNW) 08:44:31 435.800 - 435.900 CW/SSB, 435.910 FM
Hamsat 26 Oct 08:48:29 08:51:40 21° 295° (WNW) 08:54:51 145.90 MHz
MaSat-1 26 Oct 08:56:41 08:58:50 20° 51° (NE) 09:00:49 437.345 MHz
SO-67 26 Oct 08:58:03 09:01:32 90° 106° (ESE) 09:04:58 435.3500 MHz FM
AO-7 26 Oct 08:58:24 09:03:40 19° 318° (NW) 09:08:57 29.400 - 29.500 MHz
RS-15 26 Oct 09:22:47 09:32:53 42° 250° (WSW) 09:43:23 29.354 - 29.394 USB, Beacon 29.352 USB
Saudisat 1A 26 Oct 09:42:34 09:46:34 33° 318° (NW) 09:50:37 436.775 MHz
HO-68 26 Oct 09:59:58 10:06:23 33° 95° (E) 10:12:44 435.675 MHz FM
JAS-2 26 Oct 10:17:48 10:20:25 12° 316° (NW) 10:23:04 435.800 - 435.900 CW/SSB, 435.910 FM
UKube-1 26 Oct 10:29:09 10:32:05 17° 92° (E) 10:35:00 145.840 MHz, 145.915 MHz
MaSat-1 26 Oct 10:32:40 10:34:12 14° 253° (WSW) 10:35:39 437.345 MHz
Sapphire 26 Oct 10:57:15 10:59:40 13° 24° (NNE) 11:02:05 437.095 MHz 1200 baud AX-25 AFSK
Oscar 11 26 Oct 11:08:21 11:12:27 41° 98° (E) 11:16:31 145.825 FM, Beacon 2401.500 USB
FUNcube-1 26 Oct 11:11:10 11:14:16 19° 92° (E) 11:17:17 145.950 - 145.970 MHz USB
PCSat 26 Oct 11:19:13 11:22:37 16° 30° (NNE) 11:26:00 145.825 MHz
Saudisat 1A 26 Oct 11:26:28 11:27:28 11° 340° (NNW) 11:28:29 436.775 MHz
HO-68 26 Oct 11:47:24 11:54:23 56° 295° (WNW) 12:01:20 435.675 MHz FM
ZACube-1 26 Oct 12:02:18 12:06:33 66° 101° (ESE) 12:10:42 437.345 MHz
UKube-1 26 Oct 12:04:19 12:08:35 52° 289° (WNW) 12:12:49 145.840 MHz, 145.915 MHz
KITSAT 1 26 Oct 12:12:21 12:19:23 35° 109° (ESE) 12:26:26 435.175 FM
SO-50 26 Oct 12:23:17 12:24:44 11° 107° (ESE) 12:26:11 436.795 FM
Sapphire 26 Oct 12:39:31 12:44:39 40° 47° (NE) 12:49:45 437.095 MHz 1200 baud AX-25 AFSK
Oscar 11 26 Oct 12:45:04 12:48:24 22° 296° (WNW) 12:51:43 145.825 FM, Beacon 2401.500 USB
Oscar 19 26 Oct 12:45:41 12:48:33 15° 56° (ENE) 12:51:26 437.125 CW, 437.150 USB
FUNcube-1 26 Oct 12:46:50 12:50:53 43° 290° (WNW) 12:54:50 145.950 - 145.970 MHz USB
PCSat 26 Oct 13:01:47 13:07:11 60° 53° (NE) 13:12:32 145.825 MHz
AO-27 26 Oct 13:09:19 13:10:55 11° 52° (NE) 13:12:31 436.795 MHz FM
AO-Echo 26 Oct 13:13:10 13:15:40 14° 55° (NE) 13:18:11 ?
Oscar 16 26 Oct 13:29:34 13:34:11 34° 65° (ENE) 13:38:48 437.025 USB, Beacon 2401.1428
HO-68 26 Oct 13:37:12 13:40:36 14° 316° (NW) 13:44:00 435.675 MHz FM
ZACube-1 26 Oct 13:40:06 13:42:26 15° 300° (WNW) 13:44:44 437.345 MHz
ISS 26 Oct 13:42:45 13:46:00 52° 147° (SSE) 13:49:15 145.800 FM
JAS-1B 26 Oct 13:51:52 13:57:22 46° 67° (ENE) 14:02:48 435.800 - 435.900 CW/SSB
Uribyol 2 26 Oct 13:52:48 13:57:04 26° 62° (ENE) 14:01:21 436.500 FM
ITAMSAT 1 26 Oct 13:59:10 14:03:32 28° 63° (ENE) 14:07:56 435.822 SSB
SO-50 26 Oct 13:59:57 14:04:28 84° 126° (SE) 14:09:09 436.795 FM
KITSAT 1 26 Oct 14:06:18 14:14:19 66° 310° (NW) 14:22:24 435.175 FM
Oscar 19 26 Oct 14:22:02 14:27:11 89° 253° (WSW) 14:32:22 437.125 CW, 437.150 USB
Sapphire 26 Oct 14:23:04 14:28:04 38° 247° (WSW) 14:33:01 437.095 MHz 1200 baud AX-25 AFSK
AO-7 26 Oct 14:25:53 14:30:36 17° 40° (NE) 14:35:18 29.400 - 29.500 MHz
Gurwin Techsat 1B 26 Oct 14:29:29 14:33:56 28° 63° (ENE) 14:38:24 435.225 FM
TMSAT-1 26 Oct 14:39:41 14:44:01 26° 62° (ENE) 14:48:21 436.925 FM
AO-27 26 Oct 14:44:17 14:49:27 65° 72° (ENE) 14:54:39 436.795 MHz FM
PCSat 26 Oct 14:45:56 14:50:11 24° 252° (WSW) 14:54:25 145.825 MHz
Saudisat 1A 26 Oct 14:47:51 14:50:41 16° 30° (NNE) 14:53:31 436.775 MHz
AO-Echo 26 Oct 14:48:40 14:53:36 85° 75° (ENE) 14:58:45 ?
Oscar 16 26 Oct 15:08:48 15:13:30 35° 264° (W) 15:18:13 437.025 USB, Beacon 2401.1428
UOSAT-12 26 Oct 15:13:51 15:18:19 48° 120° (ESE) 15:22:53 437.025 FM, 437.400 FM
ISS 26 Oct 15:19:33 15:22:46 43° 346° (NNW) 15:25:59 145.800 FM
Uribyol 2 26 Oct 15:31:13 15:36:16 49° 260° (W) 15:41:22 436.500 FM
ITAMSAT 1 26 Oct 15:37:49 15:42:49 46° 261° (W) 15:47:51 435.822 SSB
SO-50 26 Oct 15:42:10 15:45:39 21° 327° (NNW) 15:49:13 436.795 FM
JAS-1B 26 Oct 15:43:34 15:48:23 26° 266° (W) 15:53:07 435.800 - 435.900 CW/SSB
KITSAT 1 26 Oct 16:04:54 16:11:24 26° 336° (NNW) 16:17:54 435.175 FM
Oscar 19 26 Oct 16:05:10 16:07:16 12° 273° (W) 16:09:23 437.125 CW, 437.150 USB
Gurwin Techsat 1B 26 Oct 16:08:36 16:13:41 46° 261° (W) 16:18:49 435.225 FM
AO-7 26 Oct 16:13:40 16:21:41 57° 63° (ENE) 16:29:44 29.400 - 29.500 MHz
TMSAT-1 26 Oct 16:18:30 16:23:39 50° 261° (W) 16:28:50 436.925 FM
AO-27 26 Oct 16:25:51 16:29:26 19° 270° (W) 16:33:03 436.795 MHz FM
